DW5164 Weather Reports


time (UTC)temp
C
wind
direction
speed
KPH
gust
KPH
rain 1hr
cm
rain 24hr
cm
rain mn
cm
humidity
%
barometer
mb
20260508170045 21 111 0.0 0.0 0.00 0.00 0.00 66 1013.6
20260508165600 21 111 0.0 1.6 0.00 0.00 0.00 65 1013.6
20260508165045 21 111 1.6 3.2 0.00 0.00 0.00 64 1013.6
20260508164045 22 132 1.6 3.2 0.00 0.00 0.00 64 1013.6
20260508163545 22 116 3.2 4.8 0.00 0.00 0.00 64 1013.6
20260508163101 22 87 1.6 4.8 0.00 0.00 0.00 65 1013.6
20260508162545 22 87 1.6 4.8 0.00 0.00 0.00 65 1013.6
20260508162045 21 87 3.2 3.2 0.00 0.00 0.00 65 1013.6
20260508161547 21 92 3.2 4.8 0.00 0.00 0.00 65 1013.6
20260508160045 22 94 3.2 4.8 0.00 0.00 0.00 65 1013.5
20260508155548 22 105 3.2 4.8 0.00 0.00 0.00 66 1013.5
20260508155045 21 114 1.6 4.8 0.00 0.00 0.00 66 1013.4
20260508154548 22 130 3.2 4.8 0.00 0.00 0.00 66 1013.4
20260508154045 21 127 6.4 8.0 0.00 0.00 0.00 67 1013.4
20260508153544 21 119 3.2 8.0 0.00 0.00 0.00 67 1013.4
20260508152549 22 92 3.2 4.8 0.00 0.00 0.00 65 1013.4
20260508152044 22 5 3.2 4.8 0.00 0.00 0.00 64 1013.4
20260508151544 22 75 3.2 8.0 0.00 0.00 0.00 63 1013.4
20260508150545 23 5 3.2 4.8 0.00 0.00 0.00 63 1013.4
20260508150044 22 92 4.8 9.7 0.00 0.00 0.00 62 1013.5
20260508145545 22 43 4.8 8.0 0.00 0.00 0.00 63 1013.6
20260508145046 22 96 4.8 9.7 0.00 0.00 0.00 62 1013.7
20260508144545 22 89 8.0 11.3 0.00 0.00 0.00 62 1013.7
20260508143045 22 209 3.2 4.8 0.00 0.00 0.00 64 1013.9
20260508142045 22 265 3.2 4.8 0.00 0.00 0.00 64 1013.9
20260508141544 22 46 0.0 1.6 0.00 0.00 0.00 62 1013.9
20260508141044 22 46 4.8 9.7 0.00 0.00 0.00 63 1013.9
20260508140544 23 51 4.8 11.3 0.00 0.00 0.00 64 1013.9
20260508140045 23 69 4.8 8.0 0.00 0.00 0.00 63 1014.0
20260508135600 22 83 3.2 8.0 0.00 0.00 0.00 66 1014.0
20260508135045 22 82 6.4 11.3 0.00 0.00 0.00 65 1014.1
20260508134544 22 57 3.2 9.7 0.00 0.00 0.00 65 1014.1
20260508134044 22 41 1.6 8.0 0.00 0.00 0.00 65 1014.2
20260508133045 22 230 3.2 8.0 0.00 0.00 0.00 65 1014.3
20260508132544 22 183 3.2 4.8 0.00 0.00 0.00 64 1014.4
20260508132044 22 179 3.2 4.8 0.00 0.00 0.00 64 1014.4
20260508131544 22 114 3.2 8.0 0.00 0.00 0.00 67 1014.5
20260508131046 22 104 3.2 11.3 0.00 0.00 0.00 65 1014.5
20260508125544 21 132 4.8 9.7 0.00 0.00 0.00 65 1014.5
20260508125044 21 84 4.8 9.7 0.00 0.00 0.00 66 1014.6
20260508124049 21 131 3.2 8.0 0.00 0.00 0.00 67 1014.6
20260508123545 21 278 1.6 9.7 0.00 0.00 0.00 69 1014.5
20260508123044 21 90 3.2 4.8 0.00 0.00 0.00 69 1014.6
20260508121045 21 42 4.8 8.0 0.00 0.00 0.00 72 1014.6
20260508120059 21 64 4.8 8.0 0.00 0.00 0.00 72 1014.7
20260508115044 21 89 4.8 11.3 0.00 0.00 0.00 72 1014.7
20260508114544 21 55 8.0 14.5 0.00 0.00 0.00 71 1014.8
20260508114044 21 58 6.4 11.3 0.00 0.00 0.00 72 1014.7
20260508113543 21 40 4.8 8.0 0.00 0.00 0.00 72 1014.8
20260508112544 21 177 3.2 12.9 0.00 0.00 0.00 73 1014.8
20260508112044 21 113 4.8 12.9 0.00 0.00 0.00 73 1014.9
20260508111600 20 45 1.6 8.0 0.00 0.00 0.00 73 1014.9
20260508110544 20 120 4.8 11.3 0.00 0.00 0.00 73 1015.0
20260508110044 20 78 9.7 12.9 0.00 0.00 0.00 73 1015.0
20260508105547 20 84 4.8 9.7 0.00 0.00 0.00 75 1015.1
20260508105051 20 70 1.6 3.2 0.00 0.00 0.00 75 1015.2
20260508104543 20 54 4.8 8.0 0.00 0.00 0.00 75 1015.2
20260508104043 20 77 8.0 11.3 0.00 0.00 0.00 76 1015.2
20260508103545 20 118 4.8 9.7 0.00 0.00 0.00 76 1015.3
20260508103045 20 106 8.0 8.0 0.00 0.00 0.00 76 1015.3
20260508102543 20 55 6.4 8.0 0.00 0.00 0.00 75 1015.3
20260508102045 20 146 4.8 8.0 0.00 0.00 0.00 74 1015.3
20260508101544 20 62 3.2 9.7 0.00 0.00 0.00 75 1015.3
20260508101044 20 89 4.8 9.7 0.00 0.00 0.00 75 1015.3
20260508100545 20 80 3.2 4.8 0.00 0.00 0.00 76 1015.3
20260508100049 20 98 6.4 14.5 0.00 0.00 0.00 75 1015.4
20260508095543 20 109 11.3 22.5 0.00 0.00 0.00 73 1015.4
20260508095044 20 70 4.8 14.5 0.00 0.00 0.00 73 1015.4
20260508094544 20 78 8.0 19.3 0.00 0.00 0.00 72 1015.5
20260508094045 20 111 4.8 8.0 0.00 0.00 0.00 74 1015.5
20260508093543 20 115 9.7 14.5 0.00 0.00 0.00 74 1015.5
20260508093045 20 91 8.0 14.5 0.00 0.00 0.00 75 1015.6
20260508092544 20 122 11.3 19.3 0.00 0.00 0.00 74 1015.6
20260508092043 20 80 14.5 20.9 0.00 0.00 0.00 75 1015.6
20260508091545 20 112 12.9 20.9 0.00 0.00 0.00 75 1015.6
20260508090051 20 84 11.3 16.1 0.00 0.00 0.00 77 1015.4
20260508085544 19 83 6.4 12.9 0.00 0.00 0.00 80 1015.3
20260508085043 19 113 11.3 16.1 0.00 0.00 0.00 79 1015.4
20260508084043 19 98 14.5 16.1 0.00 0.00 0.00 79 1015.3
20260508083044 18 84 9.7 19.3 0.00 0.00 0.00 81 1015.3
20260508082043 18 83 11.3 20.9 0.00 0.00 0.00 82 1015.3
20260508081543 18 84 11.3 16.1 0.00 0.00 0.00 82 1015.3
20260508081043 18 101 6.4 19.3 0.00 0.00 0.00 83 1015.4
20260508080544 18 67 9.7 19.3 0.00 0.00 0.00 83 1015.3
20260508080043 18 117 8.0 14.5 0.00 0.00 0.00 84 1015.4
20260508075544 18 118 4.8 9.7 0.00 0.00 0.00 86 1015.4
20260508075043 17 91 9.7 12.9 0.00 0.00 0.00 86 1015.4
20260508074543 17 93 12.9 14.5 0.00 0.00 0.00 85 1015.4
20260508074044 17 76 6.4 11.3 0.00 0.00 0.00 86 1015.4
20260508073543 17 106 4.8 11.3 0.00 0.00 0.00 86 1015.4
20260508073044 17 114 8.0 11.3 0.00 0.00 0.00 86 1015.4
20260508072545 17 121 6.4 9.7 0.00 0.00 0.00 87 1015.4
20260508072043 17 120 6.4 11.3 0.00 0.00 0.00 87 1015.4
20260508071544 17 124 8.0 12.9 0.00 0.00 0.00 86 1015.3
20260508071043 17 106 4.8 14.5 0.00 0.00 0.00 87 1015.4
20260508065543 17 124 6.4 12.9 0.00 0.00 0.00 87 1015.3
20260508065046 17 80 6.4 12.9 0.00 0.00 0.00 88 1015.3
20260508064544 16 71 4.8 11.3 0.00 0.00 0.00 88 1015.3
20260508064043 16 89 8.0 14.5 0.00 0.00 0.00 88 1015.2
20260508063543 16 92 8.0 12.9 0.00 0.00 0.00 89 1015.3
20260508063043 16 102 9.7 19.3 0.00 0.00 0.00 89 1015.2
20260508062043 16 81 8.0 16.1 0.00 0.00 0.00 89 1015.1
20260508061545 16 106 12.9 16.1 0.00 0.00 0.00 88 1015.0
20260508061048 16 119 11.3 19.3 0.00 0.00 0.00 88 1015.1
20260508060543 16 109 9.7 16.1 0.00 0.00 0.00 88 1015.0
20260508055043 15 118 6.4 11.3 0.00 0.00 0.00 88 1014.8
20260508054543 15 106 3.2 8.0 0.00 0.00 0.00 88 1014.8
20260508053543 15 101 4.8 11.3 0.00 0.00 0.00 88 1014.7
20260508053043 15 96 4.8 11.3 0.00 0.00 0.00 88 1014.5
20260508051043 15 91 6.4 11.3 0.00 0.00 0.00 88 1014.2
20260508050550 15 86 14.5 20.9 0.00 0.00 0.00 89 1014.2
20260508050042 14 73 9.7 16.1 0.00 0.00 0.00 90 1014.1
20260508045543 14 71 8.0 16.1 0.00 0.00 0.00 90 1014.1
20260508045043 14 82 11.3 20.9 0.00 0.00 0.00 91 1014.1
20260508044544 14 67 8.0 19.3 0.00 0.00 0.00 91 1014.0
20260508044043 13 68 8.0 14.5 0.00 0.00 0.00 91 1014.0
20260508043043 13 66 4.8 11.3 0.00 0.00 0.00 91 1013.9
20260508042543 13 49 4.8 11.3 0.00 0.00 0.00 90 1013.8
20260508042042 13 56 4.8 9.7 0.00 0.00 0.00 90 1013.8
20260508041543 13 67 6.4 12.9 0.00 0.00 0.00 90 1013.8
20260508040042 13 65 4.8 9.7 0.00 0.00 0.00 90 1013.7
20260508035542 13 70 9.7 16.1 0.00 0.00 0.00 90 1013.7
20260508035044 13 53 9.7 12.9 0.00 0.00 0.00 90 1013.6
20260508034542 13 52 9.7 16.1 0.00 0.00 0.00 90 1013.6
20260508033544 13 36 8.0 14.5 0.00 0.00 0.00 90 1013.6
20260508033043 13 51 9.7 14.5 0.00 0.00 0.00 90 1013.6
20260508032042 13 64 11.3 14.5 0.00 0.00 0.00 90 1013.6
20260508031542 13 69 8.0 14.5 0.00 0.00 0.00 90 1013.7
20260508031043 13 69 8.0 12.9 0.00 0.00 0.00 90 1013.7
20260508030543 13 67 8.0 14.5 0.00 0.00 0.00 90 1013.6
20260508030042 14 68 8.0 16.1 0.00 0.00 0.00 90 1013.5
20260508025543 14 71 6.4 16.1 0.00 0.00 0.00 90 1013.6
20260508025042 13 82 8.0 14.5 0.00 0.00 0.00 90 1013.6
20260508024558 14 59 8.0 11.3 0.00 0.00 0.00 90 1013.7
20260508024042 14 67 9.7 16.1 0.00 0.00 0.00 90 1013.6
20260508023542 14 67 9.7 14.5 0.00 0.00 0.00 91 1013.7
20260508023042 14 75 8.0 14.5 0.00 0.00 0.00 91 1013.7
20260508022542 14 78 9.7 16.1 0.00 0.00 0.00 91 1013.7
20260508022042 14 72 4.8 8.0 0.00 0.00 0.00 91 1013.6
20260508021542 14 58 6.4 9.7 0.00 0.00 0.00 90 1013.7
20260508021044 14 65 6.4 14.5 0.00 0.00 0.00 90 1013.8
20260508020044 14 75 4.8 12.9 0.00 0.00 0.00 90 1013.9
20260508015057 14 68 8.0 16.1 0.00 0.00 0.00 90 1013.9
20260508014542 14 64 8.0 11.3 0.00 0.00 0.00 90 1013.9
20260508014042 14 75 14.5 20.9 0.00 0.00 0.00 90 1013.8
20260508013542 14 67 9.7 14.5 0.00 0.00 0.00 90 1013.8
20260508013042 14 68 11.3 19.3 0.00 0.00 0.00 90 1013.8
20260508012557 14 70 12.9 19.3 0.00 0.00 0.00 90 1013.8
20260508012042 14 51 8.0 19.3 0.00 0.00 0.00 90 1013.7
20260508011542 14 61 9.7 14.5 0.00 0.00 0.00 90 1013.8
20260508011042 14 76 9.7 12.9 0.00 0.00 0.00 90 1013.8
20260508010542 14 70 11.3 14.5 0.00 0.00 0.00 90 1013.7
20260508010042 14 68 11.3 14.5 0.00 0.00 0.00 90 1013.7
20260508005542 14 71 9.7 16.1 0.00 0.00 0.00 90 1013.7
20260508005050 14 69 8.0 11.3 0.00 0.00 0.00 89 1013.7
20260508004542 15 64 8.0 16.1 0.00 0.00 0.00 89 1013.7
20260508004043 14 66 8.0 14.5 0.00 0.00 0.00 89 1013.7
20260508003542 15 90 6.4 11.3 0.00 0.00 0.00 89 1013.8
20260508003042 15 75 4.8 9.7 0.00 0.00 0.00 89 1013.8
20260508002542 15 64 6.4 11.3 0.00 0.00 0.00 89 1013.8
20260508002043 14 75 9.7 14.5 0.00 0.00 0.00 90 1013.9
20260508001542 14 70 6.4 12.9 0.00 0.00 0.00 89 1013.8
20260508001043 14 63 8.0 14.5 0.00 0.00 0.00 89 1013.8
20260508000542 15 68 8.0 11.3 0.00 0.00 0.00 89 1013.8
20260508000044 15 65 8.0 12.9 0.00 0.00 0.00 89 1013.8
20260507235542 15 68 8.0 12.9 0.00 0.00 0.00 89 1013.8
20260507235042 15 73 6.4 12.9 0.00 0.00 0.00 89 1013.8
20260507234542 15 79 6.4 11.3 0.00 0.00 0.00 89 1013.8
20260507234042 15 60 8.0 11.3 0.00 0.00 0.00 88 1013.9
20260507233542 15 68 8.0 11.3 0.00 0.00 0.00 88 1014.0
20260507232542 15 74 8.0 11.3 0.00 0.00 0.00 88 1013.9
20260507232042 15 70 9.7 11.3 0.00 0.00 0.00 88 1013.9
20260507231542 15 78 8.0 11.3 0.00 0.00 0.00 87 1013.9
20260507231043 15 66 8.0 11.3 0.00 0.00 0.00 87 1013.9
20260507230542 15 70 6.4 12.9 0.00 0.00 0.00 87 1013.9
20260507230042 15 73 4.8 11.3 0.00 0.00 0.00 86 1013.9
20260507225542 15 50 8.0 19.3 0.00 0.00 0.00 86 1013.7
20260507225042 16 58 11.3 16.1 0.00 0.00 0.00 86 1013.8
20260507224542 16 64 11.3 19.3 0.00 0.00 0.00 85 1013.9
20260507224042 16 69 11.3 19.3 0.00 0.00 0.00 85 1013.9
20260507223558 16 72 9.7 19.3 0.00 0.00 0.00 85 1013.9
20260507223041 16 85 9.7 14.5 0.00 0.00 0.00 85 1013.8
20260507222542 16 82 9.7 22.5 0.00 0.00 0.00 85 1013.7
20260507221042 16 66 9.7 19.3 0.00 0.00 0.00 84 1013.5
20260507215542 16 71 8.0 12.9 0.00 0.00 0.00 81 1013.6
20260507215041 16 69 8.0 12.9 0.00 0.00 0.00 80 1013.6
20260507214542 16 67 8.0 11.3 0.00 0.00 0.00 79 1013.6
20260507214042 16 65 9.7 12.9 0.00 0.00 0.00 78 1013.6
20260507213542 16 67 8.0 12.9 0.00 0.00 0.00 78 1013.5
20260507213047 17 82 4.8 11.3 0.00 0.00 0.00 78 1013.4
20260507212541 17 94 6.4 12.9 0.00 0.00 0.00 79 1013.4
20260507212042 17 73 8.0 11.3 0.00 0.00 0.00 79 1013.4
20260507211543 17 69 4.8 8.0 0.00 0.00 0.00 79 1013.4
20260507211041 16 100 6.4 11.3 0.00 0.00 0.00 80 1013.3
20260507210041 16 62 8.0 14.5 0.00 0.00 0.00 80 1013.3
20260507205541 16 69 4.8 9.7 0.00 0.00 0.00 80 1013.3
20260507205041 16 83 3.2 4.8 0.00 0.00 0.00 80 1013.2
20260507204041 16 107 6.4 11.3 0.00 0.00 0.00 80 1013.1
20260507203042 16 106 0.0 1.6 0.00 0.00 0.00 80 1013.0
20260507202541 16 106 0.0 1.6 0.00 0.00 0.00 80 1013.0
20260507202041 16 106 0.0 1.6 0.00 0.00 0.00 79 1012.9
20260507201556 16 106 0.0 3.2 0.00 0.00 0.00 79 1012.9
20260507201041 16 106 4.8 4.8 0.00 0.00 0.00 77 1012.9
20260507200541 16 73 3.2 4.8 0.00 0.00 0.00 78 1012.8
20260507200041 16 15 0.0 0.0 0.00 0.00 0.00 77 1012.7
20260507195541 16 15 0.0 1.6 0.00 0.00 0.00 77 1012.7
20260507194545 17 15 3.2 3.2 0.00 0.00 0.00 76 1012.6
20260507194041 17 15 3.2 3.2 0.00 0.00 0.00 75 1012.5
20260507193041 17 15 1.6 4.8 0.00 0.00 0.00 75 1012.5
20260507192541 17 15 1.6 3.2 0.00 0.00 0.00 74 1012.4
20260507192044 17 15 0.0 0.0 0.00 0.00 0.00 74 1012.3
20260507191544 17 15 0.0 0.0 0.00 0.00 0.00 74 1012.3
20260507191046 18 15 0.0 0.0 0.00 0.00 0.00 73 1012.2
20260507190541 18 15 0.0 1.6 0.00 0.00 0.00 73 1012.2
20260507190041 18 15 1.6 3.2 0.00 0.00 0.00 72 1012.1
20260507185541 18 9 1.6 3.2 0.00 0.00 0.00 73 1012.2
20260507185041 18 9 0.0 1.6 0.00 0.00 0.00 73 1012.2
20260507184541 18 9 0.0 0.0 0.00 0.00 0.00 71 1012.1
20260507184040 18 9 0.0 0.0 0.00 0.00 0.00 71 1012.1
20260507183541 18 20 0.0 0.0 0.00 0.00 0.00 69 1012.0
20260507183042 19 20 0.0 0.0 0.00 0.00 0.00 69 1011.9
20260507182541 19 20 0.0 0.0 0.00 0.00 0.00 67 1011.8
20260507182041 20 20 0.0 0.0 0.00 0.00 0.00 67 1011.7
20260507181541 20 20 0.0 0.0 0.00 0.00 0.00 66 1011.6
20260507181043 20 20 0.0 0.0 0.00 0.00 0.00 64 1011.6
20260507180040 21 2 0.0 3.2 0.00 0.00 0.00 60 1011.6
20260507175541 21 255 1.6 3.2 0.00 0.00 0.00 56 1011.5
20260507174542 21 228 0.0 3.2 0.00 0.00 0.00 55 1011.4
20260507174041 21 225 0.0 3.2 0.00 0.00 0.00 57 1011.3
20260507173542 21 225 1.6 3.2 0.00 0.00 0.00 55 1011.2
20260507173041 21 220 1.6 3.2 0.00 0.00 0.00 54 1011.2
20260507172541 22 220 3.2 4.8 0.00 0.00 0.00 54 1011.2
20260507172044 22 220 3.2 4.8 0.00 0.00 0.00 54 1011.2
20260507171544 22 241 1.6 8.0 0.00 0.00 0.00 54 1011.2
20260507170541 22 237 6.4 8.0 0.00 0.00 0.00 53 1011.1